Home > Weather > South Bend > Past weeks

Flag for USA Weather for the Past 2 Weeks in South Bend, Indiana, USA

Now
55 °F

Sunny.


Feels Like: 51 °F
Forecast: 44 / 60 °F
Wind: 17 mph from Northwest

Location: Michiana Regional Airport

Current Time: May 5, 2016 at 6:16:50 PM

Latest Report: May 5, 2016 at 4:54 PM


Visibility: 10 mi

Pressure: 29.96 "Hg

Humidity: 69%

Dew Point: 45 °F

Location of South BendLocation

Historic Weather in South Bend — Graph

°F

South Bend Temperature Yesterday

Maximum temperature yesterday: 56 °F (at 12:54 AM)
Minimum temperature yesterday: 37 °F (at 6:54 PM)
Average temperature yesterday: 45 °F

High & Low Weather Summary for the Past Weeks

 TemperatureHumidityPressure
High78 °F (Apr 25, 4:54 PM)100% (Apr 21, 9:54 AM)30.23 "Hg (Apr 21, 9:54 AM)
Low37 °F (May 4, 6:54 PM)32% (Apr 23, 5:54 PM)29.60 "Hg (Apr 25, 11:54 PM)
Average52 °F77%29.93 "Hg
* Reported Apr 20 4:54 PM — May 5 4:54 PM, South Bend, Weather by CustomWeather, © 2016

Note: Actual official high and low records may vary slightly from our data, if they occured in-between our weather recording intervals... More about our weather records

Advertising

South Bend Weather History for the Previous 24 Hours

Scroll right to see more
 ConditionsComfort  
Time TempWeatherWind HumidityBarometerVisibility
4:54 PM
Thu, May 5
55 °FSunny.17 mph69%29.96 "Hg10 mi
3:54 PM56 °FSunny.14 mph70%29.97 "Hg10 mi
2:54 PM55 °FSunny.16 mph69%29.97 "Hg10 mi
1:54 PM55 °FSunny.15 mph72%29.97 "Hg10 mi
12:54 PM55 °FSunny.13 mph72%29.97 "Hg10 mi
11:54 AM53 °FPassing clouds.9 mph74%29.97 "Hg10 mi
10:54 AM50 °FPartly sunny.10 mph80%29.96 "Hg10 mi
9:54 AM46 °FLow clouds.12 mph89%29.94 "Hg10 mi
8:54 AM45 °FLow clouds.9 mph90%29.92 "Hg10 mi
7:54 AM44 °FLow clouds.10 mph93%29.90 "Hg10 mi
6:54 AM44 °FLow clouds.13 mph93%29.86 "Hg10 mi
5:54 AM44 °FLow clouds.13 mph93%29.84 "Hg10 mi
4:54 AM43 °FLow clouds.14 mph97%29.83 "Hg10 mi
3:54 AM42 °FFog.14 mph96%29.82 "Hg6 mi
2:54 AM42 °FLow clouds.15 mph92%29.80 "Hg10 mi
1:54 AM41 °FLow clouds.20 mph93%29.79 "Hg10 mi
12:54 AM40 °FLow clouds.18 mph97%29.78 "Hg10 mi
11:54 PM
Wed, May 4
40 °FLow clouds.23 mph93%29.77 "Hg10 mi
10:54 PM40 °FMostly cloudy.26 mph93%29.78 "Hg10 mi
9:54 PM39 °FRain. Fog.24 mph93%29.77 "Hg4 mi
8:54 PM39 °FLight rain. Overcast.18 mph93%29.78 "Hg10 mi
7:54 PM38 °FLight rain. Overcast.20 mph93%29.77 "Hg7 mi
6:54 PM37 °FLight rain. Fog.18 mph93%29.78 "Hg5 mi
Weather by CustomWeather, © 2016

See weather overviewHow to use our weather pages